Probability
6 8 10 11 12 14 16 16 14 12 10 10 9 7 4 1 0 0 0 0 0 0 0 0 0 0 0 0 0 0 0 0 0 0 0 0 0 0 0 0 0 0 0
4 6 9 11 13 14 15 14 13 11 9 8 8 7 4 1 0 0 0 0 0 0 0 0 0 0 0 0 0 0 0 0 0 0 0 0 0 0 0 0 0 0 0
2 3 6 10 13 14 13 12 11 10 7 6 5 4 2 0 0 0 0 0 0 0 0 0 0 0 0 0 0 0 0 0 0 0 0 0 0 0 0 0 0 0 0
0 1 3 7 12 13 12 12 11 9 6 4 3 2 1 0 0 0 0 0 0 0 0 0 0 0 0 0 0 0 0 0 0 0 0 0 0 0 0 0 0 0 0
0 0 2 6 10 11 11 13 12 9 7 5 3 2 0 0 0 0 0 0 0 0 0 0 0 0 0 0 0 0 0 0 0 0 0 0 0 0 0 0 0 0 0
0 1 2 6 7 7 8 11 10 7 6 5 4 2 1 0 0 0 0 0 0 0 0 0 0 0 0 0 0 0 0 0 0 0 0 0 0 0 0 0 0 0 0
1 2 3 6 6 5 6 7 7 6 5 4 3 2 1 0 0 0 0 0 0 0 0 0 0 0 0 0 0 0 0 0 0 0 0 0 0 0 0 0 0 0 0
1 2 4 5 5 4 4 4 4 4 3 3 2 1 0 0 0 0 0 0 0 0 0 0 0 0 0 0 0 0 0 0 0 0 0 0 0 0 0 0 0 0 0
1 2 3 3 3 2 2 1 1 2 3 3 1 0 0 0 0 0 0 0 0 0 0 0 0 0 0 0 0 0 0 0 0 0 0 0 0 0 0 0 0 0 0
0 1 1 1 1 0 0 0 0 1 2 2 1 1 0 0 0 0 0 0 0 0 0 0 0 0 0 0 0 0 0 0 0 0 0 0 0 0 0 0 0 0 0
0 0 0 0 0 0 0 0 0 0 1 2 2 2 1 0 0 0 0 0 0 0 0 0 0 0 0 0 0 0 0 0 0 0 0 0 0 0 0 0 0 0 0
0 0 0 0 0 0 0 0 0 0 0 1 1 2 1 0 0 0 0 0 0 0 0 0 0 0 0 0 0 0 0 0 0 0 0 0 0 0 0 0 0 0 0
0 0 0 0 0 0 0 0 0 0 0 0 0 1 1 0 0 0 0 0 0 0 0 0 0 0 0 0 0 0 0 0 0 0 0 0 0 0 0 0 0 0 0
0 0 0 0 0 0 0 0 0 0 0 0 0 0 0 0 0 0 0 0 0 0 0 0 0 0 0 0 0 0 0 0 0 0 0 0 0 0 0 0 0 0 0
0 0 0 0 0 0 0 0 0 0 0 0 0 0 0 0 0 0 0 0 0 0 0 0 0 0 0 0 0 0 0 0 0 0 0 0 0 0 0 0 0 0 0
0 0 0 0 0 0 0 0 0 0 0 0 0 0 0 0 0 0 0 0 0 0 0 0 0 0 0 0 0 0 0 0 0 0 0 0 0 0 0 0 0 0 0
0 0 0 0 0 0 0 0 0 0 0 0 0 0 0 0 0 0 0 0 0 0 0 0 0 0 0 0 0 0 0 0 0 0 0 0 0 0 0 0 0 0 0
0 0 0 0 0 0 0 0 0 0 0 0 0 0 0 0 0 0 0 0 0 0 0 0 0 0 0 0 0 0 0 0 0 0 0 0 0 0 0 0 0 0 0
0 0 0 0 0 0 0 0 0 0 0 0 0 0 0 0 0 0 0 0 0 0 0 0 0 0 0 0 0 0 0 0 0 0 0 0 0 0 0 0 0 0 0
0 0 0 0 0 0 0 0 0 0 0 0 0 0 0 0 0 0 0 0 0 0 0 0 0 0 0 0 0 0 0 0 0 0 0 0 0 0 0 0 0 0 0
0 0 0 0 0 0 0 0 0 0 0 0 0 0 0 0 0 0 0 0 0 0 0 0 0 0 0 0 0 0 0 0 0 0 0 0 0 0 0 0 0 0 0
0 0 0 0 0 0 0 0 0 0 0 0 0 0 0 0 0 0 0 0 0 0 0 0 0 0 0 0 0 0 0 0 0 0 0 0 0 0 0 0 0 0 0
0 0 0 0 0 0 0 0 0 0 0 0 0 0 0 0 0 0 0 0 0 0 0 0 0 0 0 0 0 0 0 0 0 0 0 0 0 0 0 0 0 0 0
0 0 0 0 0 0 0 0 0 0 0 0 0 0 0 0 0 0 0 0 0 0 0 0 0 0 0 0 0 0 0 0 0 0 0 0 0 0 0 0 0 0 0
0 0 0 0 0 0 0 0 0 0 0 0 0 0 0 0 0 0 0 0 0 0 0 0 0 0 0 0 0 0 0 0 0 0 0 0 0 0 0 0 0 0 0
0 0 0 0 0 0 0 0 0 0 0 0 0 0 0 0 0 0 0 0 0 0 0 0 0 0 0 0 0 0 0 0 0 0 0 0 0 0 0 0 0 0 0
Wind_Speed
7 6 7 7 8 8 8 9 10 9 8 7 6 5 4 4 3 3 5 5 5 5 5 4 4 3 3 3 3 3 3 1 1 2 1 2 2 1 0 1 0 0 1
4 6 7 7 9 9 9 9 10 10 9 7 5 4 4 3 3 3 3 4 5 5 5 5 4 4 3 3 3 3 2 1 1 2 2 1 3 2 1 1 0 1 1
9 9 8 8 8 9 10 10 10 10 9 8 6 5 4 3 2 3 3 3 5 5 5 5 4 4 4 3 3 3 4 2 1 1 3 2 3 2 2 1 1 1 1
7 8 9 9 9 9 9 9 10 10 9 9 9 10 7 6 5 4 3 3 4 5 5 5 5 4 3 3 3 3 3 3 2 1 0 1 3 2 2 2 2 2 2
6 7 8 9 8 8 8 8 9 9 9 9 10 9 6 4 3 4 4 3 3 4 4 4 4 4 3 3 3 3 3 2 2 2 1 1 0 1 2 3 3 3 2
5 5 4 4 5 6 6 7 9 8 8 9 8 9 9 8 7 6 5 4 2 2 3 4 4 3 3 3 3 3 3 2 2 2 2 2 2 2 2 2 3 3 3
4 4 3 3 4 6 6 7 9 8 8 8 8 8 9 9 9 8 6 5 3 3 4 4 3 3 3 3 3 3 3 3 2 2 2 2 2 2 2 2 2 3 3
2 3 3 4 4 5 6 7 8 8 8 8 8 7 7 6 5 6 5 5 4 4 4 4 4 3 3 3 3 2 2 2 2 2 2 2 2 2 2 2 2 2 3
1 1 2 2 3 4 5 7 7 6 7 7 7 7 6 6 6 5 4 4 3 3 4 4 4 3 3 3 3 2 2 2 2 2 2 2 2 2 2 2 2 3 3
3 2 1 1 2 3 4 5 6 6 6 5 6 6 6 6 6 6 5 4 4 4 4 4 3 3 3 3 3 2 2 2 2 2 2 2 2 1 1 2 2 3 4
3 2 2 2 2 3 4 4 4 5 5 5 5 5 5 5 5 5 5 5 4 4 4 4 4 3 3 3 3 2 2 2 2 2 2 3 2 2 2 2 2 2 2
5 4 3 4 4 4 3 3 3 4 4 4 5 5 5 5 5 5 4 4 4 4 3 3 3 3 3 3 3 3 3 3 3 3 2 3 2 2 2 2 3 3 3
6 5 5 5 4 3 3 3 3 3 3 4 5 5 5 5 5 4 4 4 4 3 3 3 2 2 2 2 2 3 3 3 3 3 3 3 2 3 2 3 3 3 3
5 5 5 4 4 3 2 3 3 3 4 4 5 5 5 4 4 4 4 3 3 3 3 3 2 2 2 2 2 2 2 2 2 2 2 3 3 4 3 3 3 3 3
5 4 4 4 3 3 3 2 3 3 4 5 4 4 4 4 4 4 3 3 3 2 2 2 2 2 2 2 2 2 2 2 2 2 2 2 3 4 3 2 3 3 3
4 3 3 4 3 2 2 2 2 3 4 5 4 4 4 4 4 3 3 3 2 2 2 2 2 1 1 2 3 2 2 2 2 2 2 2 3 3 4 4 4 4 4
3 2 2 2 2 2 2 2 2 3 4 4 4 4 4 4 3 3 3 3 2 2 2 1 1 1 1 1 2 2 2 2 2 2 2 2 2 3 3 4 4 5 6
2 1 1 1 2 2 2 2 3 4 4 4 4 3 4 4 3 3 3 2 2 2 1 1 1 1 1 1 1 1 1 1 2 2 3 2 3 3 4 2 2 3 3
2 1 0 0 1 2 2 4 3 4 4 4 3 3 3 3 3 3 2 2 2 1 1 1 1 0 1 1 1 0 1 1 1 2 2 2 2 5 5 2 2 3 4
2 2 1 2 2 2 2 4 3 3 3 2 2 2 3 3 3 2 2 1 2 1 1 1 1 1 1 2 2 1 0 1 1 1 1 3 4 5 5 2 2 3 4
3 2 2 2 2 1 3 3 3 2 1 2 3 3 2 2 2 2 2 2 2 1 1 1 1 1 1 2 2 2 1 1 1 1 2 2 5 5 4 4 2 4 4
3 3 2 3 2 2 3 3 2 1 2 3 3 3 2 2 2 2 2 1 2 1 1 1 1 1 2 2 2 3 2 2 1 2 2 2 4 5 4 4 4 5 4
3 2 2 3 3 2 2 2 1 1 2 3 3 2 2 2 2 2 2 1 1 1 0 0 1 1 2 2 3 3 3 3 2 2 3 3 4 4 3 3 5 4 2
2 2 2 2 2 3 2 1 1 2 2 2 2 2 2 1 1 1 1 1 1 1 1 1 1 1 2 1 1 1 1 1 2 1 1 3 4 3 3 3 3 2 1
2 1 1 1 2 2 2 2 2 2 2 2 2 2 1 1 1 1 0 0 1 2 2 2 2 2 2 3 3 2 1 1 1 0 1 1 1 1 2 2 2 2 2
1 1 1 1 1 2 2 2 2 2 2 2 1 1 1 1 0 0 1 1 1 2 2 2 2 2 3 4 4 4 4 3 2 1 0 1 1 1 2 2 2 2 2
Wind_Direction
216 198 187 175 166 164 164 165 163 164 158 155 155 156 161 160 154 156 152 151 146 144 141 138 139 137 141 148 142 127 121 112 114 87 29 353 1 19 310 237 173 281 306
205 193 185 177 173 171 170 168 166 166 167 166 163 158 150 153 152 149 149 153 149 148 146 143 149 146 140 138 144 130 126 138 129 128 115 347 334 328 331 320 236 271 333
197 192 184 184 177 176 177 175 172 168 165 156 143 130 114 107 122 148 157 163 155 150 148 151 150 153 152 163 168 154 146 161 203 146 145 155 224 288 312 295 287 286 291
199 189 185 183 185 187 182 175 171 166 163 159 158 159 163 169 180 173 165 159 158 154 153 155 156 158 158 163 175 166 159 152 180 227 181 167 161 169 290 307 299 289 276
196 190 191 189 186 181 178 175 168 167 165 165 164 164 164 165 149 146 145 150 153 156 157 158 159 162 164 167 167 164 163 168 176 185 174 153 110 149 173 272 300 305 274
196 186 181 175 173 172 171 170 166 168 166 165 164 167 165 161 156 161 163 164 158 157 162 158 157 164 165 169 174 173 170 180 181 187 185 174 175 189 181 227 269 282 283
182 163 153 152 163 167 171 171 168 169 169 168 169 173 171 169 171 172 172 168 169 174 180 170 162 162 168 166 162 165 174 181 182 195 208 212 216 191 185 206 249 268 284
144 153 160 163 169 173 170 167 170 170 170 172 174 173 170 171 174 173 169 173 177 179 172 169 166 165 163 162 158 160 178 176 190 204 207 217 236 212 201 196 204 275 287
66 119 129 133 148 163 166 166 164 164 167 171 166 165 166 164 162 158 156 158 162 159 158 163 163 164 165 167 162 177 190 183 197 210 214 222 237 236 226 208 196 206 262
33 30 49 87 119 144 143 144 149 157 157 155 162 160 161 159 154 147 153 158 161 158 157 156 160 167 169 171 172 180 189 181 207 210 210 226 236 241 242 227 228 215 231
29 27 28 50 74 92 102 113 125 128 137 145 144 140 147 148 150 154 160 160 154 158 160 160 161 169 172 175 174 186 183 189 212 219 219 233 229 232 247 241 234 236 230
24 26 35 52 65 78 94 104 111 119 130 133 134 137 137 139 143 150 157 154 153 157 159 155 158 163 166 173 178 188 193 200 214 223 223 239 236 238 243 239 238 241 235
27 29 33 43 50 62 82 98 103 107 108 118 123 123 127 131 138 146 146 145 145 147 147 146 157 167 167 173 186 190 197 201 212 219 225 236 228 245 249 245 248 248 252
25 29 30 30 36 48 69 93 94 102 107 108 115 117 119 122 128 131 137 140 145 151 150 157 171 175 170 177 190 194 200 205 213 224 233 241 235 238 240 248 249 254 257
18 27 27 22 26 38 51 75 83 90 105 106 106 111 111 108 104 103 112 125 137 140 146 154 157 159 173 186 187 189 189 199 212 237 250 255 262 264 253 254 252 250 256
2 11 22 19 15 38 64 81 85 88 104 109 107 104 103 101 100 101 103 99 99 112 129 143 149 159 193 181 169 168 182 202 216 245 267 275 278 277 284 281 278 270 260
347 1 7 9 6 27 82 97 100 97 100 102 100 99 101 98 95 97 93 92 83 76 82 99 126 162 215 174 176 175 177 195 222 240 256 282 293 304 274 280 298 296 292
340 351 352 2 16 45 78 93 98 100 100 98 98 102 104 103 99 95 90 81 79 81 77 56 64 75 311 307 208 152 181 214 245 247 248 255 271 274 276 266 282 285 285
323 314 346 33 44 62 88 96 92 95 98 101 102 105 111 113 108 101 95 94 93 78 66 55 67 60 302 327 317 19 187 231 275 279 273 274 267 282 297 290 283 299 301
7 11 38 65 66 54 92 98 94 93 101 110 106 101 106 115 116 111 98 90 99 99 76 42 19 329 306 329 339 346 197 228 271 296 296 302 296 294 299 279 258 276 288
7 19 53 63 48 54 89 96 94 97 107 101 99 95 98 108 113 102 94 99 97 85 69 42 353 341 321 329 332 323 266 228 247 276 291 294 306 304 306 312 284 281 302
10 27 53 45 34 53 96 100 94 82 86 92 93 90 88 93 99 101 91 93 112 107 83 63 345 338 326 325 306 308 301 294 250 252 266 283 309 318 328 325 317 322 330
4 26 57 48 33 40 84 106 75 81 96 101 96 86 78 70 86 113 119 109 111 126 156 205 272 308 319 318 326 320 314 312 296 261 278 301 323 337 341 335 332 335 336
9 24 53 46 27 32 53 61 49 69 95 105 104 99 93 76 61 72 100 123 154 191 232 245 254 276 291 296 297 288 297 320 313 310 319 343 353 348 333 334 338 333 313
356 20 51 38 16 27 37 33 37 72 90 92 90 94 94 98 72 51 59 172 231 233 240 233 227 237 262 271 286 295 275 253 245 304 44 25 355 341 335 336 338 339 339
343 15 28 33 13 22 21 17 31 74 102 95 88 90 111 113 117 63 11 10 332 325 318 289 277 279 282 297 311 318 312 310 308 21 72 321 303 301 309 317 324 329 324